LA9NKA Weather Reports


Display with metric or nautical units.
time (UTC)temp
F
wind
direction
speed
MPH
gust
MPH
rain 1hr
in
rain 24hr
in
rain mn
in
humidity
%
barometer
mb
20260506165534 0 311 2.0 10.0 0.00 0.12 0.12 86 1014.2
20260506164533 0 298 4.0 10.0 0.00 0.12 0.12 86 1014.2
20260506163532 0 283 4.0 8.0 0.00 0.12 0.12 86 1014.1
20260506162532 0 270 7.0 11.0 0.00 0.12 0.12 86 1014.2
20260506161531 0 275 7.0 12.0 0.00 0.12 0.12 86 1014.2
20260506160528 0 278 9.0 15.0 0.00 0.12 0.12 86 1014.2
20260506155627 0 273 8.0 14.0 0.00 0.12 0.12 86 1014.1
20260506154526 0 273 9.0 15.0 0.00 0.12 0.12 86 1014.0
20260506153552 0 282 6.0 11.0 0.00 0.12 0.12 86 1014.0
20260506152549 0 275 8.0 12.0 0.00 0.12 0.12 86 1014.0
20260506151545 0 283 6.0 11.0 0.00 0.12 0.12 86 1014.1
20260506150542 0 273 6.0 11.0 0.00 0.12 0.12 86 1014.1
20260506145541 0 287 6.0 12.0 0.00 0.12 0.12 86 1014.1
20260506144640 0 272 7.0 10.0 0.00 0.12 0.12 86 1014.2
20260506143539 0 279 7.0 12.0 0.00 0.12 0.12 86 1014.2
20260506142538 0 271 6.0 12.0 0.00 0.12 0.12 86 1014.3
20260506141638 0 272 7.0 12.0 0.00 0.12 0.12 86 1014.2
20260506140537 0 281 5.0 12.0 0.00 0.12 0.12 86 1014.1
20260506135536 0 283 5.0 11.0 0.00 0.12 0.12 86 1014.2
20260506134532 0 281 7.0 12.0 0.00 0.12 0.12 86 1014.2
20260506133632 0 295 4.0 10.0 0.00 0.12 0.12 86 1014.2
20260506132531 0 289 6.0 10.0 0.00 0.12 0.12 86 1014.2
20260506131530 0 288 5.0 10.0 0.00 0.13 0.12 86 1014.3
20260506130558 0 288 5.0 11.0 0.00 0.14 0.12 86 1014.2
20260506125524 0 286 7.0 11.0 0.00 0.14 0.12 86 1014.2
20260506124524 0 292 6.0 11.0 0.00 0.14 0.12 86 1014.2
20260506123523 0 273 5.0 11.0 0.00 0.14 0.12 86 1014.1
20260506122552 0 283 3.0 8.0 0.00 0.14 0.12 86 1014.1
20260506121649 0 303 3.0 8.0 0.00 0.14 0.12 86 1014.1
20260506120548 0 300 3.0 7.0 0.00 0.14 0.12 86 1014.1
20260506115517 0 283 4.0 10.0 0.00 0.14 0.12 86 1014.1
20260506114547 0 258 6.0 11.0 0.00 0.14 0.12 86 1014.0
20260506113546 0 261 5.0 12.0 0.00 0.14 0.12 86 1013.9
20260506112545 0 248 6.0 11.0 0.00 0.14 0.12 86 1014.0
20260506111544 0 250 3.0 7.0 0.00 0.14 0.12 86 1014.0
20260506110544 0 248 3.0 7.0 0.00 0.14 0.12 86 1014.0
20260506105640 0 240 3.0 7.0 0.00 0.14 0.12 86 1014.0
20260506104539 0 194 3.0 7.0 0.00 0.14 0.12 86 1014.0
20260506103538 0 200 2.0 4.0 0.00 0.14 0.12 86 1013.9
20260506102534 0 193 3.0 5.0 0.00 0.14 0.12 86 1013.9
20260506101631 0 133 3.0 5.0 0.00 0.14 0.12 86 1013.9
20260506100531 0 211 3.0 7.0 0.00 0.14 0.12 86 1013.9
20260506095627 0 149 2.0 5.0 0.00 0.14 0.12 86 1014.0
20260506094626 0 184 3.0 5.0 0.00 0.15 0.12 86 1014.1
20260506093623 0 144 3.0 5.0 0.00 0.15 0.12 86 1014.0
20260506092649 0 133 2.0 5.0 0.01 0.15 0.12 86 1014.1
20260506091548 0 152 3.0 5.0 0.02 0.15 0.12 86 1014.0
20260506090548 0 152 2.0 5.0 0.04 0.15 0.12 86 1014.0
20260506085545 0 125 3.0 5.0 0.07 0.15 0.12 86 1014.0
20260506084645 0 169 1.0 3.0 0.08 0.16 0.12 86 1014.0
20260506083543 0 134 1.0 3.0 0.09 0.16 0.12 86 1014.1
20260506082542 0 111 1.0 3.0 0.09 0.15 0.11 86 1014.1
20260506081542 0 192 1.0 3.0 0.09 0.15 0.10 86 1014.0
20260506080541 0 293 1.0 3.0 0.07 0.14 0.08 86 1014.0
20260506072629 0 270 1.0 1.0 0.01 0.08 0.02 86 1014.2
20260506071528 0 311 1.0 4.0 0.00 0.07 0.01 86 1014.2
20260506070627 0 299 4.0 8.0 0.00 0.07 0.01 86 1014.1
20260506061521 0 83 1.0 3.0 0.00 0.08 0.01 86 1013.4
20260506060550 0 74 1.0 3.0 0.00 0.08 0.01 86 1013.3
20260506050811 0 68 1.0 3.0 0.00 0.08 0.01 86 1013.3
20260506044707 0 68 0.0 1.0 0.00 0.08 0.01 86 1013.4
20260506043536 0 54 0.0 1.0 0.00 0.08 0.01 86 1013.4
20260506042535 0 45 1.0 3.0 0.01 0.08 0.01 86 1013.4
20260506041533 0 0.0 0.0 0.01 0.08 0.01 86 1013.2
20260506040633 0 45 0.0 1.0 0.01 0.08 0.01 86 1013.2
20260506035629 0 45 1.0 3.0 0.01 0.08 0.01 86 1013.3
20260506034529 0 23 1.0 3.0 0.01 0.08 0.01 86 1013.3
20260506033552 0 338 0.0 3.0 0.01 0.08 0.01 86 1013.3
20260506032548 0 308 0.0 1.0 0.00 0.07 0.00 86 1013.4
20260506031517 0 329 1.0 3.0 0.00 0.07 0.00 86 1013.2
20260506030646 0 23 0.0 1.0 0.00 0.07 0.00 86 1013.1
20260506025546 0 0.0 0.0 0.00 0.07 0.00 86 1013.3
20260506024545 0 0.0 0.0 0.00 0.07 0.00 86 1013.4
20260506023545 0 23 0.0 1.0 0.00 0.07 0.00 86 1013.4
20260506023211 0 0.0 0.0 0.00 0.07 0.00 86 1013.5
20260506021540 0 23 1.0 3.0 0.00 0.07 0.00 86 1013.4
20260506020609 0 0.0 0.0 0.00 0.07 0.00 86 1013.4
20260506015606 0 135 1.0 1.0 0.00 0.07 0.00 86 1013.4
20260506014706 0 135 1.0 3.0 0.00 0.07 0.00 86 1013.4
20260506013632 0 135 0.0 1.0 0.00 0.07 0.00 86 1013.4
20260506012532 0 135 1.0 1.0 0.00 0.07 0.00 86 1013.4
20260506011530 0 158 1.0 3.0 0.00 0.07 0.00 86 1013.4
20260506010529 0 158 1.0 3.0 0.00 0.07 0.00 86 1013.5
20260506005529 0 176 2.0 5.0 0.00 0.07 0.00 86 1013.4
20260506004528 0 240 2.0 5.0 0.00 0.07 0.00 86 1013.5
20260506003654 0 244 3.0 8.0 0.00 0.07 0.00 86 1013.5
20260506002553 0 222 2.0 7.0 0.00 0.07 0.00 86 1013.5
20260506002023 0 338 0.0 1.0 0.00 0.07 0.00 86 1013.4
20260506000822 0 0.0 0.0 0.00 0.07 0.00 86 1013.5
20260505235612 0 0.0 0.0 0.00 0.07 0.00 86 1013.3
20260505234541 0 338 0.0 1.0 0.00 0.07 0.00 86 1013.4
20260505233642 0 338 1.0 1.0 0.00 0.07 0.00 86 1013.3
20260505232534 0 0.0 0.0 0.00 0.07 0.00 86 1013.3
20260505231603 0 338 0.0 1.0 0.00 0.07 0.00 86 1013.4
20260505230632 0 0.0 0.0 0.00 0.07 0.00 86 1013.5
20260505225600 0 0.0 0.0 0.00 0.07 0.00 86 1013.5
20260505224558 0 0.0 0.0 0.00 0.07 0.00 86 1013.5
20260505223558 0 0.0 0.0 0.00 0.07 0.00 86 1013.6
20260505222824 0 0.0 0.0 0.00 0.07 0.00 86 1013.5
20260505221821 0 0.0 0.0 0.00 0.07 0.00 86 1013.5
20260505220619 0 0.0 0.0 0.00 0.07 0.00 86 1013.5
20260505215718 0 0.0 0.0 0.00 0.07 0.07 86 1013.4
20260505215015 0 0.0 0.0 0.00 0.07 0.07 86 1013.3
20260505213045 0 0.0 0.0 0.00 0.07 0.07 86 1013.3
20260505212914 0 315 0.0 1.0 0.00 0.07 0.07 86 1013.2
20260505211044 0 336 0.0 3.0 0.00 0.07 0.07 86 1013.2
20260505210043 0 326 1.0 3.0 0.00 0.07 0.07 86 1013.2
20260505205536 0 333 1.0 3.0 0.00 0.07 0.07 86 1013.2
20260505204533 0 328 1.0 4.0 0.00 0.07 0.07 86 1013.1
20260505203533 0 315 0.0 3.0 0.00 0.07 0.07 86 1013.2
20260505202530 0 320 0.0 3.0 0.00 0.07 0.07 86 1013.2
20260505201528 0 320 1.0 4.0 0.00 0.07 0.07 86 1013.2
20260505200525 0 314 1.0 4.0 0.00 0.07 0.07 86 1013.2
20260505195554 0 324 1.0 5.0 0.00 0.07 0.07 86 1013.1
20260505194554 0 320 1.0 4.0 0.00 0.07 0.07 86 1013.1
20260505193523 0 318 2.0 5.0 0.00 0.07 0.07 86 1013.1
20260505192521 0 304 2.0 7.0 0.00 0.07 0.07 86 1012.9
20260505191521 0 323 2.0 4.0 0.00 0.07 0.07 86 1012.8
20260505190549 0 308 3.0 8.0 0.00 0.07 0.07 86 1012.7
20260505185549 0 302 5.0 8.0 0.00 0.07 0.07 86 1012.6
20260505184542 0 311 3.0 8.0 0.00 0.07 0.07 86 1012.6
20260505183540 0 316 3.0 7.0 0.00 0.07 0.07 86 1012.5
20260505182539 0 306 5.0 10.0 0.00 0.07 0.07 86 1012.5
20260505181539 0 300 4.0 11.0 0.00 0.07 0.07 86 1012.4
20260505180538 0 316 3.0 10.0 0.00 0.07 0.07 86 1012.4
20260505175535 0 323 2.0 8.0 0.00 0.07 0.07 86 1012.4
20260505174534 0 305 2.0 4.0 0.00 0.07 0.07 86 1012.4
20260505173531 0 286 3.0 7.0 0.00 0.07 0.07 86 1012.4
20260505172530 0 288 3.0 11.0 0.00 0.07 0.07 86 1012.4
20260505171529 0 296 3.0 7.0 0.00 0.07 0.07 86 1012.3
20260505170529 0 267 4.0 10.0 0.00 0.07 0.07 86 1012.3